Location: Petruro
(41.0333°N, 14.7833°E)
Time: 14:04:14
(UTC+00:00)

DELTA 2 R/B (1) - Pass Details

Date: 26 October 2021
Orbit: 791 x 802 km, 39.6° (Epoch: 04 December)

Event Time Altitude Azimuth Distance (km) Brightness Sun altitude
Rises 17:02:44 0° 195° (SSW) 3,288 7.1 -11.6°
Reaches altitude 10° 17:06:32 10° 170° (S) 2,361 6.0 -12.3°
Maximum altitude 17:09:08 13° 141° (SE) 2,125 5.5 -12.8°
Enters shadow 17:10:59 12° 121° (ESE) 2,246 5.4 -13.2°
